SKYNET 5A

Last updated on Tue Jul 08 2025 00:02:44 GMT+0000 (Coordinated Universal Time)

1 30794U 07007B 25188.58244019 -.00000260 00000+0 00000+0 0 9991 2 30794 4.4207 77.9493 0003245 29.2394 123.4886 1.00272273 67249
UTC large
Height (km)
Speed (km/s)
/
Latitude / Longitude
Inclination (degrees)
Orbital Period (minutes)
Azimuth
Elevation
Range (km)
Doppler Factor

Next 0 passes for location: London (51.5072 / 0.1276)

Sorry there are no passes over London.